BEIDOU 10

Last updated on July 16, 2019, 4:08 a.m. UTC

1 37948U 11073A   19196.86847351 -.00000168  00000-0  10000-3 0  9991
2 37948  52.1159 301.8903 0062606 208.8414 189.4603  1.00288844 28058
UTC
Height (km)
Latitude
Longitude
Inclination
Orbital Period
UTC large
Height (km)
Speed (km/s)
/
Latitude / Longitude
Inclination (degrees)
Orbital Period (minutes)
Azimuth
Elevation
Range (km)
Doppler Factor
iOS Compass Heading
iOS Angle

Next 30 passes for location: Hong Kong

Rise time Rise Azimuth (degrees) Set time Set Azimuth (degrees) Duration Max altitude (degrees)

No matching passes for this satellites